Flag for Canada Weather past 2 weeks in Campbell River, British Columbia, Canada

Now
70 °F

Broken clouds.


Feels Like: 70 °F
Forecast: 54 / 71 °F
Wind: 6 mph from East

Location: Campbell River Airport

Current Time: Aug 21, 2014 at 2:14:20 PM

Latest Report: Aug 21, 2014 at 1:00 PM


Visibility: 30 mi

Pressure: 30.00 "Hg

Humidity: 60%

Dew point: 55 °F

Location of Campbell RiverLocation

Historic Weather in Campbell River — Graph

°F

Campbell River temperature yesterday

Maximum temperature yesterday: 73 °F (at 4:00 PM)
Minimum temperature yesterday: 54 °F (at 6:00 AM)
Average temperature yesterday: 65 °F

Past Weeks' High & Low Weather Summary

 TemperatureHumidityPressure
High90 °F (Aug 10, 5:00 PM)100% (Aug 14, 6:00 AM)30.17 "Hg (Aug 14, 6:00 AM)
Low50 °F (Aug 7, 6:00 AM)24% (Aug 10, 6:00 PM)29.78 "Hg (Aug 19, 6:00 PM)
Average70 °F61%30.00 "Hg
* Reported Aug 6 1:00 PM — Aug 21 1:00 PM, Campbell River, Weather by CustomWeather, © 2014

Note: Actual official high and low records may vary slightly from our data, if they occured in-between our weather recording intervals... More about our weather records

Advertising

Campbell River weather history for previous 24 hours

 ConditionsComfort  
Time TempWeatherWind HumidityBarometerVisibility
1:00 PM
Aug 21
70 °FBroken clouds.6 mph60%30.00 "Hg30 mi
12:00 PM66 °FCloudy.6 mph73%30.01 "Hg30 mi
11:00 AM64 °FMostly cloudy.5 mph68%30.02 "Hg20 mi
10:00 AM63 °FMostly cloudy.No wind68%30.02 "Hg30 mi
9:00 AM61 °FMostly cloudy.3 mph68%30.02 "Hg30 mi
8:00 AM57 °FBroken clouds.No wind82%30.01 "Hg30 mi
7:00 AM54 °FMostly cloudy.3 mph88%30.01 "Hg30 mi
6:00 AM52 °FPassing clouds.3 mph94%30.00 "Hg20 mi
9:00 PM
Aug 20
57 °FPassing clouds.2 mph88%29.94 "Hg30 mi
8:00 PM64 °FPassing clouds.No wind64%29.93 "Hg30 mi
7:00 PM70 °FPassing clouds.6 mph53%29.93 "Hg30 mi
6:00 PM72 °FPassing clouds.7 mph47%29.93 "Hg30 mi
5:00 PM73 °FPassing clouds.6 mph47%29.93 "Hg30 mi
4:00 PM73 °FPassing clouds.6 mph47%29.93 "Hg30 mi
3:00 PM72 °FScattered clouds.8 mph53%29.94 "Hg30 mi
2:00 PM72 °FScattered clouds.9 mph50%29.93 "Hg30 mi
Weather by CustomWeather, © 2014

See weather overviewHow to use our weather pages